Location: Bergnershof
(48.9468°N, 10.9431°E)
Time: 23:20:44
(UTC+00:00)

SME Rocket - Pass Details

Date: 03 March 2021
Orbit: 550 x 2652 km, 99.9° (Epoch: 12 April)

Event Time Altitude Azimuth Distance (km) Brightness Sun altitude
Rises 19:05:30 0° 15° (NNE) 5,115 7.7 -20.8°
Reaches altitude 10° 19:09:05 10° 17° (NNE) 3,804 7.0 -21.3°
Maximum altitude 19:17:40 80° 105° (ESE) 1,131 4.1 -22.7°
Drops below altitude 10° 19:23:07 10° 193° (SSW) 2,465 6.1 -23.5°
Sets 19:25:02 0° 194° (SSW) 3,228 6.7 -23.8°
